CW3007 Weather Reports


Display with metric or nautical units.
time (UTC)temp
F
wind
direction
speed
MPH
gust
MPH
rain 1hr
in
rain 24hr
in
rain mn
in
humidity
%
barometer
mb
20260506140627 78 106 2.0 6.0 0.00 0.00 0.00 83 1008.5
20260506135627 78 136 2.0 8.0 0.00 0.00 0.00 85 1008.7
20260506133627 77 162 4.0 9.0 0.00 0.00 0.00 85 1008.1
20260506132627 76 114 4.0 8.0 0.00 0.00 0.00 86 1008.0
20260506131627 76 178 4.0 8.0 0.00 0.00 0.00 87 1007.8
20260506130626 76 133 3.0 9.0 0.00 0.00 0.00 87 1007.8
20260506125627 75 171 1.0 5.0 0.00 0.00 0.00 87 1007.8
20260506124627 75 150 1.0 5.0 0.00 0.00 0.00 87 1007.6
20260506123627 75 140 1.0 6.0 0.00 0.00 0.00 87 1007.6
20260506122627 75 126 2.0 3.0 0.00 0.00 0.00 87 1007.5
20260506120627 75 128 3.0 3.0 0.00 0.00 0.00 86 1007.5
20260506115627 75 161 1.0 4.0 0.00 0.00 0.00 86 1007.4
20260506114626 75 155 1.0 6.0 0.00 0.00 0.00 86 1007.3
20260506113627 75 144 2.0 4.0 0.00 0.00 0.00 86 1007.4
20260506112627 75 140 3.0 4.0 0.00 0.00 0.00 86 1007.5
20260506111626 76 173 2.0 4.0 0.00 0.00 0.00 85 1007.4
20260506110626 76 157 3.0 4.0 0.00 0.00 0.00 85 1007.4
20260506105627 76 165 2.0 6.0 0.00 0.00 0.00 85 1007.4
20260506104626 76 360 3.0 8.0 0.00 0.00 0.00 85 1007.3
20260506103626 76 158 3.0 8.0 0.00 0.00 0.00 85 1007.2
20260506101627 76 167 5.0 8.0 0.00 0.00 0.00 85 1007.0
20260506100627 76 181 3.0 8.0 0.00 0.00 0.00 85 1006.9
20260506095626 76 171 4.0 8.0 0.00 0.00 0.00 85 1007.0
20260506094626 76 192 3.0 7.0 0.00 0.00 0.00 85 1006.8
20260506093627 76 153 3.0 10.0 0.00 0.00 0.00 84 1006.7
20260506092627 76 182 2.0 8.0 0.00 0.00 0.00 84 1006.6
20260506091627 76 160 2.0 9.0 0.00 0.00 0.00 84 1006.5
20260506090626 76 214 3.0 9.0 0.00 0.00 0.00 84 1006.4
20260506085626 76 173 8.0 8.0 0.00 0.00 0.00 84 1006.4
20260506084626 76 139 2.0 8.0 0.00 0.00 0.00 84 1006.6
20260506083627 76 190 4.0 10.0 0.00 0.00 0.00 84 1006.5
20260506082627 76 155 4.0 11.0 0.00 0.00 0.00 84 1006.4
20260506081626 76 197 5.0 11.0 0.00 0.00 0.00 84 1006.2
20260506080626 76 194 6.0 14.0 0.00 0.00 0.00 84 1006.2
20260506071628 76 160 5.0 14.0 0.00 0.00 0.00 85 1006.5
20260506070628 76 185 8.0 13.0 0.00 0.00 0.00 84 1006.5
20260506061627 76 195 8.0 16.0 0.00 0.00 0.00 84 1006.4
20260506060627 76 167 9.0 13.0 0.00 0.00 0.00 84 1006.3
20260506050626 76 187 8.0 13.0 0.00 0.00 0.00 84 1006.6
20260506043627 77 169 7.0 14.0 0.00 0.00 0.00 83 1006.6
20260506042628 77 124 3.0 11.0 0.00 0.00 0.00 83 1006.5
20260506041628 77 144 4.0 12.0 0.00 0.00 0.00 83 1006.4
20260506040627 77 144 2.0 11.0 0.00 0.00 0.00 83 1006.4
20260506035627 77 117 6.0 11.0 0.00 0.00 0.00 83 1006.3
20260506034627 77 136 3.0 9.0 0.00 0.00 0.00 83 1006.0
20260506033626 77 187 5.0 9.0 0.00 0.00 0.00 83 1005.9
20260506032628 77 147 8.0 10.0 0.00 0.00 0.00 82 1005.8
20260506031627 78 161 6.0 10.0 0.00 0.00 0.00 82 1005.6
20260506030627 78 160 7.0 10.0 0.00 0.00 0.00 81 1005.6
20260506025627 78 206 6.0 10.0 0.00 0.00 0.00 81 1005.5
20260506024627 78 136 9.0 12.0 0.00 0.00 0.00 80 1005.4
20260506023627 79 144 3.0 9.0 0.00 0.00 0.00 80 1005.2
20260506022628 79 119 4.0 10.0 0.00 0.00 0.00 79 1004.9
20260506020626 79 133 2.0 8.0 0.00 0.00 0.00 78 1004.7
20260506015626 79 126 3.0 5.0 0.00 0.00 0.00 78 1004.4
20260506014626 80 139 3.0 4.0 0.00 0.00 0.00 77 1004.4
20260506013627 80 148 2.0 7.0 0.00 0.00 0.00 76 1004.5
20260506012626 80 138 2.0 9.0 0.00 0.00 0.00 75 1004.4
20260506010626 81 146 3.0 7.0 0.00 0.00 0.00 74 1004.4
20260506004626 82 157 3.0 8.0 0.00 0.00 0.00 73 1004.4
20260506003626 82 167 5.0 8.0 0.00 0.00 0.00 72 1004.4
20260506002626 82 144 3.0 7.0 0.00 0.00 0.00 72 1004.3
20260506001626 82 167 8.0 9.0 0.00 0.00 0.00 72 1004.3
20260505235626 83 174 2.0 9.0 0.00 0.00 0.00 72 1004.4
20260505234626 83 161 2.0 9.0 0.00 0.00 0.00 72 1004.2
20260505232626 83 133 8.0 14.0 0.00 0.00 0.00 70 1004.0
20260505231626 83 180 3.0 9.0 0.00 0.00 0.00 71 1003.7
20260505230626 83 161 5.0 12.0 0.00 0.00 0.00 71 1003.8
20260505225626 84 153 5.0 15.0 0.00 0.00 0.00 70 1003.7
20260505224626 84 182 4.0 13.0 0.00 0.00 0.00 70 1003.7
20260505223626 84 160 5.0 13.0 0.00 0.00 0.00 70 1003.8
20260505222626 84 163 7.0 12.0 0.00 0.00 0.00 70 1003.6
20260505221626 84 127 5.0 15.0 0.00 0.00 0.00 70 1003.6
20260505220626 84 209 6.0 14.0 0.00 0.00 0.00 68 1003.7
20260505214627 84 159 8.0 13.0 0.00 0.00 0.00 68 1004.2
20260505213626 84 143 8.0 14.0 0.00 0.00 0.00 68 1004.2
20260505212627 84 169 13.0 15.0 0.00 0.00 0.00 68 1004.2
20260505211627 84 169 17.0 19.0 0.00 0.00 0.00 68 1004.5
20260505210626 84 122 5.0 16.0 0.00 0.00 0.00 68 1004.5
20260505202627 83 177 10.0 17.0 0.00 0.00 0.00 69 1004.9
20260505201627 83 191 8.0 15.0 0.00 0.00 0.00 70 1005.1
20260505200626 82 196 9.0 18.0 0.00 0.00 0.00 71 1005.3
20260505195626 83 121 3.0 16.0 0.00 0.00 0.00 72 1005.3
20260505192626 82 175 10.0 14.0 0.00 0.00 0.00 71 1005.6
20260505191626 82 205 5.0 17.0 0.00 0.00 0.00 70 1006.0
20260505185626 82 188 8.0 16.0 0.00 0.00 0.00 72 1006.0
20260505183625 80 189 8.0 11.0 0.00 0.00 0.00 73 1006.4
20260505182626 81 173 7.0 11.0 0.00 0.00 0.00 73 1006.6
20260505181626 80 169 9.0 15.0 0.00 0.00 0.00 75 1006.6
20260505180627 78 203 7.0 13.0 0.00 0.00 0.00 75 1006.7
20260505175626 78 243 9.0 15.0 0.00 0.00 0.00 76 1006.9
20260505174626 78 180 5.0 17.0 0.00 0.00 0.00 76 1006.9
20260505173626 78 205 7.0 15.0 0.00 0.00 0.00 77 1007.0
20260505172626 77 210 7.0 12.0 0.00 0.00 0.00 78 1007.1
20260505171626 77 190 11.0 15.0 0.00 0.00 0.00 78 1006.9
20260505170625 76 228 8.0 15.0 0.00 0.00 0.00 79 1007.1
20260505164626 75 221 6.0 14.0 0.00 0.00 0.00 80 1007.2
20260505163626 75 211 6.0 12.0 0.00 0.00 0.00 81 1007.2
20260505162627 74 188 8.0 14.0 0.00 0.00 0.00 81 1007.2
20260505161627 74 247 9.0 11.0 0.00 0.00 0.00 81 1007.2
20260505160627 74 217 3.0 14.0 0.00 0.00 0.00 82 1007.2
20260505152626 74 186 6.0 12.0 0.00 0.00 0.00 82 1007.2
20260505151627 74 206 2.0 12.0 0.00 0.00 0.00 82 1007.1
20260505150626 74 242 8.0 19.0 0.00 0.00 0.00 82 1007.1